FW0639 Weather Reports


time (UTC)temp
F
wind
direction
speed
knots
gust
knots
rain 1hr
in
rain 24hr
in
rain mn
in
humidity
%
barometer
mb
20260509214349 63 332 1.7 7.8 0.00 0.00 0.00 48 1013.3
20260509213317 64 344 2.6 7.8 0.00 0.00 0.00 44 1013.1
20260509212324 64 351 1.7 7.8 0.00 0.00 0.00 47 1013.1
20260509211336 63 342 1.7 5.2 0.00 0.00 0.00 48 1013.1
20260509210337 63 340 2.6 7.0 0.00 0.00 0.00 49 1013.0
20260509205317 62 340 1.7 7.8 0.00 0.00 0.00 50 1013.0
20260509204325 62 340 1.7 7.8 0.00 0.00 0.00 51 1012.8
20260509203256 62 357 0.9 6.1 0.00 0.00 0.00 50 1012.8
20260509194829 58 339 1.7 7.0 0.00 0.00 0.00 61 1012.6
20260509193808 58 339 2.6 10.4 0.00 0.00 0.00 63 1012.6
20260509192821 59 338 0.9 10.4 0.00 0.00 0.00 64 1012.5
20260509191747 58 338 0.9 5.2 0.00 0.00 0.00 63 1012.4
20260509190727 57 338 1.7 7.0 0.00 0.00 0.00 66 1012.3
20260509184523 57 338 1.7 7.0 0.00 0.00 0.00 71 1012.2
20260509183500 56 338 0.9 5.2 0.00 0.00 0.00 72 1012.1
20260509182514 56 338 0.9 3.5 0.00 0.00 0.00 70 1012.2
20260509181525 56 338 0.9 0.0 0.00 0.00 0.00 74 1012.0
20260509180550 55 338 0.9 5.2 0.00 0.00 0.00 74 1011.8
20260509025510 64 340 0.0 2.6 0.00 0.00 0.00 34 1003.2
20260509024502 64 340 0.9 3.5 0.00 0.00 0.00 34 1002.9
20260509023428 64 341 0.0 3.5 0.00 0.00 0.00 34 1002.8
20260509022409 65 340 0.0 2.6 0.00 0.00 0.00 34 1002.7
20260509021414 65 339 0.0 1.7 0.00 0.00 0.00 34 1002.6
20260509020426 66 339 0.0 3.5 0.00 0.00 0.00 33 1002.6
20260509015445 66 338 0.0 3.5 0.00 0.00 0.00 32 1002.6
20260509014503 67 339 0.0 1.7 0.00 0.00 0.00 31 1002.6
20260509013519 67 339 0.9 7.8 0.00 0.00 0.00 30 1002.7
20260509012516 68 339 0.9 7.8 0.00 0.00 0.00 29 1002.7
20260509011509 68 339 0.9 6.1 0.00 0.00 0.00 29 1002.7
20260509010503 69 338 0.9 11.3 0.00 0.00 0.00 27 1002.7
20260509004315 69 338 0.9 6.1 0.00 0.00 0.00 26 1002.8
20260509003336 69 340 1.7 9.6 0.00 0.00 0.00 26 1002.8
20260509002308 70 338 1.7 9.6 0.00 0.00 0.00 25 1002.8
20260509001238 71 338 1.7 9.6 0.00 0.00 0.00 25 1002.9
20260509000226 71 340 3.5 12.2 0.00 0.00 0.00 24 1003.0
20260508235231 72 355 2.6 12.2 0.00 0.00 0.00 25 1003.0
20260508224632 73 32 2.6 9.6 0.00 0.00 0.00 27 1003.4
20260508223643 73 105 2.6 10.4 0.00 0.00 0.00 27 1003.5
20260508222634 73 21 2.6 13.9 0.00 0.00 0.00 26 1003.5
20260508221625 73 323 3.5 13.9 0.00 0.00 0.00 25 1003.6